Location: Marcé
(47.5801°N, 0.3280°W)
Time: 05:59:45
(UTC+01:00)

deb Explorer IX - Pass Details

Date: 06 October 2022
Orbit: 533 x 1057 km, 38.8° (Epoch: 02 December)

Event Time Altitude Azimuth Distance (km) Brightness Sun altitude
Exits shadow 07:19:51 - 221° (SW) 2,752 ? -8.8°
Reaches altitude 10° 07:22:15 10° 205° (SSW) 2,014 ? -8.4°
Maximum altitude 07:25:41 20° 158° (SSE) 1,542 ? -7.8°
Drops below altitude 10° 07:29:30 10° 111° (ESE) 2,257 ? -7.2°
Sets 07:32:41 0° 96° (E) 3,298 ? -6.6°
